星链-31677 (STARLINK-31677 )

导读

STARLINK-31677是美国SpaceX公司星链(Starlink)星座中的一颗卫星,于2024年5月13日在卡纳维拉尔角太空军基地由猎鹰九号火箭发射升空。星链项目旨在通过低地球轨道部署大规模卫星星座,为全球尤其是偏远地区提供高速、低延迟的宽带互联网接入服务,STARLINK-31677是星链网络持续扩张中的一员,助力实现全球无缝互联的目标。

基本信息
目录编号:
59749
目录名称:
STARLINK-31677
国际标识:
2024-090V
轨道中心:
EARTH
卫星名称:
星链-31677
卫星全名:
星链-31677 (STARLINK-31677 )
卫星状态:
在轨 (已飞行844 天)
发射日期:
2024-05-13 UTC
国别 :
美国 (US)
星等 :
--
轨道信息
数据来源 国际轨道数据
星历时间: 2026-09-04T15:16:46+0800
13小时前
查看轨道信息
半长轴: 6861.189km
偏心率: 0.0001357
轨道倾角: 43.002°
近地点辐角 270.862°
升交点赤经 255.047°
平近点角 89.207°
近地点: 482.12km
远地点: 483.984km
周期: 94.267分钟
每日圈数: 15.275792
详细信息
固有亮度:
5
最大亮度:
1.5
卫星平台:
Starlink v2.0 mini
覆盖范围:
全球
运营商:
太空探索技术公司
运营商所在国:
美国
制造商(研发单位):
太空探索技术公司
制造商所在国:
美国
使用方式:
暂无
卫星简介
星链(Starlink)计划是由太空探索技术公司(SpaceX)提出的一个巨型低轨卫星互联网星座项目,计划在2019年至2024年间在太空搭建由约1.2万颗卫星组成的“星链”网络,其中1584颗将部署在地球上空550千米处的近地轨道,并从2020年开始工作。该卫星仍在工作。
2D轨道图
3D轨道图
轨道高度分析图
轨道倾角分析图
轨道综合分析图
查看轨道综合分析图
交会数据列表
事件ID 空间交会对象 最接近时刻(TCA) 交会距离 交会风险概率(CRP) 交会风险指数(CRI) 操作
CDM_260907-070805-974906-734521
2026-09-07T
07:08:36+0000
0.883 km
远距离
1.615939E-5 中风险 0.59
CDM_260907-053405-974906-734521
2026-09-07T
05:34:27+0000
1.933 km
极远距离
1.358577E-6 低风险 0.38